GW0772 Weather Reports


time (UTC)temp
F
wind
direction
speed
knots
gust
knots
rain 1hr
in
rain 24hr
in
rain mn
in
humidity
%
barometer
mb
20260906022204 81 0 0.0 0.0 0.00 0.00 0.00 77 1010.6
20260906021704 82 0 0.0 0.0 0.00 0.00 0.00 77 1010.6
20260906021203 82 0 0.0 0.0 0.00 0.00 0.00 76 1010.5
20260906020705 82 0 0.0 0.0 0.00 0.00 0.00 76 1010.4
20260906020204 82 0 0.0 0.0 0.00 0.00 0.00 75 1010.3
20260906015204 83 0 0.0 0.0 0.00 0.00 0.00 74 1010.3
20260906014704 83 0 0.0 0.9 0.00 0.00 0.00 73 1010.2
20260906014204 83 0 0.0 0.0 0.00 0.00 0.00 73 1010.2
20260906013704 83 0 0.0 0.0 0.00 0.00 0.00 73 1010.1
20260906013205 84 0 0.0 0.0 0.00 0.00 0.00 71 1010.1
20260906012704 84 0 0.0 0.9 0.00 0.00 0.00 72 1010.1
20260906011204 85 0 0.0 0.0 0.00 0.00 0.00 69 1009.8
20260906010704 85 0 0.0 0.0 0.00 0.00 0.00 68 1009.8
20260906010204 86 0 0.0 0.0 0.00 0.00 0.00 67 1009.6
20260906005704 86 0 0.0 0.0 0.00 0.00 0.00 66 1009.5
20260906005204 86 0 0.0 0.0 0.00 0.00 0.00 65 1009.5
20260906004704 87 0 0.0 0.9 0.00 0.00 0.00 66 1009.5
20260906004205 87 0 0.0 0.9 0.00 0.00 0.00 65 1009.5
20260906003704 87 0 0.0 1.7 0.00 0.00 0.00 64 1009.4
20260906003204 88 283 0.0 0.9 0.00 0.00 0.00 63 1009.4
20260906002704 88 283 0.0 2.6 0.00 0.00 0.00 63 1009.4
20260906001704 89 303 0.9 1.7 0.00 0.00 0.00 62 1009.7
20260906001204 89 285 0.0 0.9 0.00 0.00 0.00 62 1009.7
20260906000704 89 285 0.0 0.0 0.00 0.00 0.00 60 1009.8
20260906000205 90 285 0.0 0.0 0.00 0.00 0.00 61 1009.9
20260905235705 90 285 0.0 0.0 0.00 0.00 0.00 59 1009.9
20260905235204 90 285 0.0 0.0 0.00 0.00 0.00 60 1010.0
20260905234204 90 285 0.9 2.6 0.00 0.00 0.00 58 1010.0
20260905233704 90 285 1.7 2.6 0.00 0.00 0.00 57 1010.0
20260905233204 90 310 0.9 2.6 0.00 0.00 0.00 58 1009.9
20260905232705 90 294 1.7 5.2 0.00 0.00 0.00 58 1010.1
20260905232204 90 306 2.6 4.3 0.00 0.00 0.00 57 1010.1
20260905231704 90 281 1.7 2.6 0.00 0.00 0.00 58 1010.1
20260905231204 90 307 1.7 2.6 0.00 0.00 0.00 57 1010.2
20260905230704 90 300 2.6 4.3 0.00 0.00 0.00 57 1010.2
20260905230204 90 294 0.9 2.6 0.00 0.00 0.00 59 1010.3
20260905225704 89 304 1.7 2.6 0.00 0.00 0.00 59 1010.3
20260905225205 89 249 1.7 5.2 0.00 0.00 0.00 59 1010.1
20260905224704 88 287 1.7 4.3 0.00 0.00 0.00 60 1010.1
20260905224204 88 270 0.9 2.6 0.00 0.00 0.00 61 1010.2
20260905223704 88 315 3.5 6.1 0.00 0.00 0.00 61 1010.3
20260905223204 88 309 3.5 6.1 0.00 0.00 0.00 61 1010.2
20260905222704 88 293 1.7 7.0 0.00 0.00 0.00 61 1010.2
20260905222203 88 287 2.6 5.2 0.00 0.00 0.00 61 1010.3
20260905221704 88 287 1.7 5.2 0.00 0.00 0.00 61 1010.0
20260905220704 89 261 1.7 2.6 0.00 0.00 0.00 63 1010.3
20260905220204 89 294 0.0 2.6 0.00 0.00 0.00 61 1010.2
20260905215705 89 294 0.0 0.9 0.00 0.00 0.00 61 1010.4
20260905215204 89 293 0.0 0.9 0.00 0.00 0.00 60 1010.3
20260905214204 89 53 0.9 2.6 0.00 0.00 0.00 59 1010.1
20260905213704 90 65 1.7 4.3 0.00 0.00 0.00 58 1010.3
20260905213204 90 66 1.7 2.6 0.00 0.00 0.00 57 1010.6
20260905212704 90 317 1.7 6.1 0.00 0.00 0.00 55 1010.6
20260905212205 90 288 1.7 2.6 0.00 0.00 0.00 55 1010.7
20260905210704 92 299 4.3 7.8 0.00 0.00 0.00 53 1010.5
20260905205704 93 300 4.3 7.0 0.00 0.00 0.00 53 1010.3
20260905205204 94 303 4.3 7.0 0.00 0.00 0.00 52 1010.4
20260905204705 95 275 2.6 7.8 0.00 0.00 0.00 51 1010.3
20260905204204 96 292 4.3 7.0 0.00 0.00 0.00 52 1010.6
20260905203704 96 304 1.7 2.6 0.00 0.00 0.00 54 1010.5
20260905203204 97 235 0.9 1.7 0.00 0.00 0.00 54 1010.5
20260905202704 97 235 0.9 1.7 0.00 0.00 0.00 51 1010.4
20260905202204 97 230 0.9 2.6 0.00 0.00 0.00 49 1010.2
20260905201204 97 293 0.0 0.9 0.00 0.00 0.00 50 1010.5
20260905200704 97 293 0.9 1.7 0.00 0.00 0.00 51 1010.5
20260905200204 98 293 0.0 1.7 0.00 0.00 0.00 48 1010.4
20260905195204 98 294 0.9 2.6 0.00 0.00 0.00 49 1010.7
20260905194705 99 238 0.9 1.7 0.00 0.00 0.00 47 1010.8
20260905193704 99 236 0.9 1.7 0.00 0.00 0.00 44 1010.9
20260905193205 99 312 1.7 5.2 0.00 0.00 0.00 43 1011.0
20260905192704 100 269 1.7 2.6 0.00 0.00 0.00 44 1011.0
20260905192204 99 248 0.9 2.6 0.00 0.00 0.00 46 1011.0
20260905191704 99 299 0.9 1.7 0.00 0.00 0.00 44 1011.0
20260905190704 99 259 2.6 6.1 0.00 0.00 0.00 45 1011.2
20260905190204 99 283 2.6 4.3 0.00 0.00 0.00 45 1011.2
20260905185704 99 3 0.9 2.6 0.00 0.00 0.00 46 1011.2
20260905185204 100 333 0.9 4.3 0.00 0.00 0.00 45 1011.3
20260905184704 100 32 0.9 2.6 0.00 0.00 0.00 44 1011.4
20260905184205 100 57 0.9 5.2 0.00 0.00 0.00 43 1011.4
20260905183204 99 83 1.7 2.6 0.00 0.00 0.00 46 1011.5
20260905182704 99 283 1.7 2.6 0.00 0.00 0.00 48 1011.6
20260905182204 99 283 2.6 5.2 0.00 0.00 0.00 46 1011.7
20260905181704 99 242 1.7 2.6 0.00 0.00 0.00 46 1011.7
20260905181204 99 269 1.7 5.2 0.00 0.00 0.00 47 1011.7
20260905180703 99 306 2.6 7.8 0.00 0.00 0.00 45 1011.8
20260905180204 98 306 1.7 4.3 0.00 0.00 0.00 47 1011.8
20260905175705 98 272 1.7 7.0 0.00 0.00 0.00 48 1011.9
20260905175204 98 249 1.7 4.3 0.00 0.00 0.00 48 1011.9
20260905174704 98 309 1.7 2.6 0.00 0.00 0.00 48 1012.0
20260905174204 98 28 1.7 7.8 0.00 0.00 0.00 49 1012.0
20260905173704 98 315 2.6 6.1 0.00 0.00 0.00 48 1012.0
20260905172704 97 286 1.7 5.2 0.00 0.00 0.00 49 1012.1
20260905172204 97 294 1.7 2.6 0.00 0.00 0.00 51 1012.2
20260905171705 97 326 1.7 4.3 0.00 0.00 0.00 50 1012.2
20260905171204 97 298 3.5 7.8 0.00 0.00 0.00 50 1012.3
20260905170704 97 291 0.9 7.0 0.00 0.00 0.00 50 1012.3
20260905170204 96 272 2.6 6.1 0.00 0.00 0.00 50 1012.4
20260905165704 96 231 1.7 4.3 0.00 0.00 0.00 48 1012.5
20260905165204 96 325 1.7 6.1 0.00 0.00 0.00 50 1012.6
20260905164704 96 310 2.6 6.1 0.00 0.00 0.00 51 1012.6
20260905164204 96 298 2.6 7.0 0.00 0.00 0.00 53 1012.7
20260905163704 95 306 2.6 6.1 0.00 0.00 0.00 53 1012.8
20260905163204 95 281 2.6 7.0 0.00 0.00 0.00 54 1012.8
20260905162704 95 285 1.7 7.0 0.00 0.00 0.00 54 1012.8
20260905162204 95 278 2.6 7.8 0.00 0.00 0.00 54 1012.9
20260905161704 94 321 2.6 6.1 0.00 0.00 0.00 56 1012.9
20260905161204 94 273 3.5 7.8 0.00 0.00 0.00 56 1012.8
20260905160704 94 285 4.3 7.8 0.00 0.00 0.00 55 1012.8
20260905155704 94 261 0.9 6.1 0.00 0.00 0.00 60 1012.8
20260905155204 94 310 2.6 5.2 0.00 0.00 0.00 58 1012.9
20260905154704 93 275 2.6 6.1 0.00 0.00 0.00 60 1012.9
20260905154205 93 285 2.6 7.0 0.00 0.00 0.00 58 1012.9
20260905153204 92 309 4.3 7.0 0.00 0.00 0.00 58 1013.0
20260905152704 92 330 4.3 10.4 0.00 0.00 0.00 58 1013.0
20260905152204 92 292 2.6 6.1 0.00 0.00 0.00 62 1013.0
20260905151704 92 326 1.7 2.6 0.00 0.00 0.00 63 1012.9
20260905150705 91 333 2.6 4.3 0.00 0.00 0.00 63 1013.0
20260905150204 90 274 2.6 5.2 0.00 0.00 0.00 64 1013.0
20260905145705 90 304 2.6 5.2 0.00 0.00 0.00 63 1013.0
20260905145204 89 309 1.7 2.6 0.00 0.00 0.00 64 1012.9
20260905144705 89 303 0.9 2.6 0.00 0.00 0.00 66 1012.9
20260905144204 89 311 1.7 4.3 0.00 0.00 0.00 66 1012.9
20260905143204 87 268 1.7 2.6 0.00 0.00 0.00 70 1012.9
20260905142704 87 269 0.9 2.6 0.00 0.00 0.00 71 1013.0
20260905142203 87 263 0.9 2.6 0.00 0.00 0.00 71 1013.0
20260905141705 86 285 1.7 5.2 0.00 0.00 0.00 71 1013.1
20260905141204 86 301 1.7 4.3 0.00 0.00 0.00 71 1013.1
20260905140704 85 290 1.7 2.6 0.00 0.00 0.00 74 1013.1
20260905140204 85 280 0.9 2.6 0.00 0.00 0.00 76 1013.2
20260905135704 84 301 0.0 0.9 0.00 0.00 0.00 77 1013.2
20260905135204 83 301 0.9 1.7 0.00 0.00 0.00 78 1013.2
20260905134704 82 288 0.9 1.7 0.00 0.00 0.00 80 1013.2
20260905133204 80 10 0.0 0.0 0.00 0.00 0.00 85 1013.2
20260905132704 80 10 0.0 0.9 0.00 0.00 0.00 85 1013.2
20260905131704 79 10 0.0 0.0 0.00 0.00 0.00 90 1013.2
20260905131204 78 10 0.0 0.0 0.00 0.00 0.00 91 1013.2
20260905130703 78 10 0.0 0.0 0.00 0.00 0.00 92 1013.2
20260905130204 78 10 0.0 0.0 0.00 0.00 0.00 93 1013.2
20260905125705 78 10 0.9 1.7 0.00 0.00 0.00 94 1013.2
20260905125204 77 10 0.9 1.7 0.00 0.00 0.00 94 1013.2
20260905124704 77 326 0.9 1.7 0.00 0.00 0.00 95 1013.1
20260905124204 76 311 0.9 0.9 0.00 0.00 0.00 96 1013.0
20260905123704 76 311 0.0 0.0 0.00 0.00 0.00 96 1013.0
20260905123204 76 311 0.9 1.7 0.00 0.00 0.00 96 1012.9
20260905122705 76 311 0.0 0.0 0.00 0.00 0.00 96 1012.9
20260905122205 75 311 0.0 0.0 0.00 0.00 0.00 96 1012.8
20260905121704 75 311 0.0 0.0 0.00 0.00 0.00 96 1012.9
20260905120705 75 309 0.0 0.0 0.00 0.00 0.00 96 1012.7
20260905120204 75 309 0.0 0.0 0.00 0.00 0.00 96 1012.6
20260905115704 75 309 0.0 0.0 0.00 0.00 0.00 96 1012.5
20260905114704 75 309 0.0 0.0 0.00 0.00 0.00 96 1012.4
20260905113704 75 309 0.0 0.0 0.00 0.00 0.00 96 1012.3
20260905113204 75 309 0.0 0.0 0.00 0.00 0.00 96 1012.4
20260905112705 75 309 0.0 0.9 0.00 0.00 0.00 96 1012.4
20260905112204 75 309 0.0 0.9 0.00 0.00 0.00 96 1012.5
20260905111204 75 309 0.0 0.0 0.00 0.00 0.00 96 1012.4
20260905110705 75 309 0.0 0.0 0.00 0.00 0.00 96 1012.4
20260905110204 75 309 0.0 0.0 0.00 0.00 0.00 96 1012.4
20260905105704 75 309 0.0 0.0 0.00 0.00 0.00 96 1012.2
20260905105203 75 309 0.0 0.0 0.00 0.00 0.00 95 1012.3
20260905104704 75 309 0.0 0.0 0.00 0.00 0.00 95 1012.2
20260905104204 75 309 0.0 0.0 0.00 0.00 0.00 95 1012.3
20260905103204 75 309 0.0 0.0 0.00 0.00 0.00 95 1012.2
20260905102704 75 309 0.0 0.0 0.00 0.00 0.00 95 1012.2
20260905102204 75 309 0.0 0.0 0.00 0.00 0.00 95 1012.1
20260905101704 76 309 0.0 0.0 0.00 0.00 0.00 95 1012.1
20260905101204 76 309 0.0 0.0 0.00 0.00 0.00 95 1012.1
20260905100704 76 309 0.0 0.0 0.00 0.00 0.00 95 1012.0
20260905100204 76 309 0.0 0.0 0.00 0.00 0.00 95 1011.9
20260905095204 76 309 0.0 0.0 0.00 0.00 0.00 95 1011.9
20260905094204 76 309 0.0 0.0 0.00 0.00 0.00 95 1011.8
20260905093704 76 309 0.0 0.0 0.00 0.00 0.00 95 1011.8
20260905093204 76 309 0.0 0.0 0.00 0.00 0.00 94 1011.9
20260905092703 76 309 0.0 0.0 0.00 0.00 0.00 94 1011.9
20260905092204 76 309 0.0 0.0 0.00 0.00 0.00 94 1011.9
20260905091704 76 309 0.0 0.0 0.00 0.00 0.00 94 1011.9
20260905091204 76 309 0.0 0.0 0.00 0.00 0.00 94 1011.9
20260905090704 76 309 0.0 0.0 0.00 0.00 0.00 94 1011.9
20260905090204 76 309 0.0 0.0 0.00 0.00 0.00 94 1011.9
20260905085704 76 309 0.0 0.0 0.00 0.00 0.00 94 1011.9
20260905085204 76 309 0.0 0.0 0.00 0.00 0.00 94 1011.9
20260905082204 77 309 0.0 0.9 0.00 0.00 0.00 94 1012.0
20260905081704 77 309 0.0 0.0 0.00 0.00 0.00 93 1012.0
20260905081204 77 309 0.0 0.0 0.00 0.00 0.00 93 1012.0
20260905080704 77 309 0.0 0.0 0.00 0.00 0.00 93 1012.1
20260905080204 77 309 0.0 0.0 0.00 0.00 0.00 93 1012.2
20260905075704 77 309 0.0 0.0 0.00 0.00 0.00 93 1012.1
20260905075204 77 309 0.0 0.9 0.00 0.00 0.00 93 1012.1
20260905074704 77 309 0.0 0.0 0.00 0.00 0.00 93 1012.1
20260905074204 78 309 0.0 0.0 0.00 0.00 0.00 92 1012.2
20260905072704 78 309 0.0 0.0 0.00 0.00 0.00 92 1012.2
20260905072204 78 309 0.0 0.0 0.00 0.00 0.00 92 1012.2
20260905071704 78 309 0.0 0.0 0.00 0.00 0.00 92 1012.1
20260905071204 78 309 0.0 0.0 0.00 0.00 0.00 92 1012.2
20260905070704 78 309 0.0 0.0 0.00 0.00 0.00 92 1012.2
20260905070204 78 309 0.0 0.0 0.00 0.00 0.00 92 1012.2
20260905065704 78 309 0.0 0.0 0.00 0.00 0.00 91 1012.2
20260905065204 78 309 0.0 0.0 0.00 0.00 0.00 91 1012.2
20260905064704 79 309 0.0 0.0 0.00 0.00 0.00 91 1012.2
20260905064204 79 309 0.0 0.9 0.00 0.00 0.00 91 1012.2
20260905063704 79 309 0.0 0.9 0.00 0.00 0.00 91 1012.3
20260905063204 79 309 0.0 0.0 0.00 0.00 0.00 91 1012.3
20260905062704 79 309 0.0 0.0 0.00 0.00 0.00 91 1012.3
20260905062204 79 309 0.0 0.0 0.00 0.00 0.00 91 1012.4
20260905061704 79 309 0.0 0.0 0.00 0.00 0.00 90 1012.4
20260905061204 79 309 0.0 0.0 0.00 0.00 0.00 90 1012.4
20260905060704 79 309 0.0 0.0 0.00 0.00 0.00 90 1012.5
20260905060204 79 309 0.0 0.0 0.00 0.00 0.00 90 1012.5
20260905055704 79 309 0.0 0.0 0.00 0.00 0.00 90 1012.4
20260905054704 79 309 0.0 0.0 0.00 0.00 0.00 89 1012.4
20260905054204 80 309 0.0 0.9 0.00 0.00 0.00 89 1012.4
20260905053204 80 309 0.0 0.0 0.00 0.00 0.00 89 1012.4
20260905051704 80 309 0.0 0.0 0.00 0.00 0.00 88 1012.5
20260905050704 80 309 0.0 0.0 0.00 0.00 0.00 88 1012.6
20260905050205 80 309 0.0 0.9 0.00 0.00 0.00 87 1012.6
20260905045204 80 309 0.0 0.0 0.00 0.00 0.00 86 1012.6
20260905044204 81 309 0.0 0.0 0.00 0.00 0.00 86 1012.7
20260905042704 81 309 0.0 1.7 0.00 0.00 0.00 85 1012.7
20260905042204 81 309 0.0 0.9 0.00 0.00 0.00 85 1012.6
20260905041704 81 309 0.0 0.0 0.00 0.00 0.00 85 1012.6
20260905041204 81 309 0.0 0.0 0.00 0.00 0.00 85 1012.7
20260905040704 82 309 0.0 0.0 0.00 0.00 0.00 84 1012.7
20260905040204 82 309 0.0 0.0 0.00 0.00 0.00 84 1012.6
20260905035704 82 309 0.0 0.0 0.00 0.00 0.00 83 1012.7
20260905035205 82 309 0.0 0.0 0.00 0.00 0.00 83 1012.7
20260905034705 82 309 0.0 0.0 0.00 0.00 0.00 83 1012.7
20260905034204 82 309 0.0 0.0 0.00 0.00 0.00 82 1012.7
20260905033705 82 309 0.0 0.0 0.00 0.00 0.00 82 1012.7
20260905033204 83 309 0.0 0.0 0.00 0.00 0.00 82 1012.7
20260905032704 83 309 0.0 0.0 0.00 0.00 0.00 81 1012.7
20260905032204 83 309 0.0 0.0 0.00 0.00 0.00 81 1012.7
20260905031704 83 309 0.0 0.9 0.00 0.00 0.00 81 1012.8
20260905030204 83 309 0.0 0.0 0.00 0.00 0.00 80 1012.7
20260905025706 83 309 0.0 0.0 0.00 0.00 0.00 80 1012.7
20260905025204 83 309 0.0 0.0 0.00 0.00 0.00 80 1012.6
20260905024704 83 309 0.0 0.0 0.00 0.00 0.00 79 1012.6
20260905023704 84 309 0.0 0.0 0.00 0.00 0.00 78 1012.5
20260905023204 84 309 0.0 0.0 0.00 0.00 0.00 78 1012.4
20260905022704 84 309 0.0 0.0 0.00 0.00 0.00 77 1012.5